Location: Casteau
(50.5142°N, 4.0161°E)
Time: 07:37:41
(UTC+00:00)

Transit 2A - Pass Details

Date: 06 August 2021
Orbit: 594 x 964 km, 66.7° (Epoch: 24 September)

Event Time Altitude Azimuth Distance (km) Brightness Sun altitude
Rises 04:05:39 0° 180° (S) 2,839 8.6 -2.7°
Reaches altitude 10° 04:08:06 10° 167° (SSE) 1,964 8.0 -2.3°
Maximum altitude 04:11:43 25° 112° (ESE) 1,273 7.7 -1.8°
Drops below altitude 10° 04:15:34 10° 57° (ENE) 2,100 10.5 -1.3°
Sets 04:18:18 0° 44° (NE) 3,081 10.9 -0.9°
